Location: Sternwarte ZA, Rosenfeld-Brittheim
(48.2889°N, 8.6789°E)
Time: 21:32:33
(UTC+02:00)

ISS - Pass Details

Date: 23 May 2017
Orbit: 402 x 409 km, 51.6° (Epoch: 25 May)

Event Time Altitude Azimuth Distance (km) Brightness Sun altitude
Rises 22:43:00 0° 215° (SW) 2,322 -0.2 -12.3°
Reaches altitude 10° 22:45:15 10° 203° (SSW) 1,464 -1.3 -12.6°
Maximum altitude 22:48:06 27° 143° (SE) 813 -2.9 -12.9°
Drops below altitude 10° 22:50:57 10° 83° (E) 1,469 -1.3 -13.1°
Sets 22:53:12 0° 71° (ENE) 2,332 -0.1 -13.4°
